This is the latest recevied weather packets stored in our database for station/object LZ1HCO-25. If no packets are shown the sender has not sent any weather packets the latest 10 day(s).
| Time | Temp. | Humidity | Pressure | Rain* | Wind** | Luminosity | Snow |
|---|---|---|---|---|---|---|---|
| 1777480743 | 14.44° C | 96% | 971 hPa | - | - | 0 W/m² | - |
| 1777480432 | 14.44° C | 93% | 971 hPa | - | - | 0 W/m² | - |
| 1777480120 | 14.44° C | 94% | 971 hPa | - | - | 0 W/m² | - |
| 1777479809 | 14.44° C | 95% | 971 hPa | - | - | 0 W/m² | - |
| 1777479498 | 15° C | 82% | 971 hPa | - | - | 0 W/m² | - |
| 1777479186 | 15° C | 82% | 971 hPa | - | - | 0 W/m² | - |
| 1777478875 | 15° C | 83% | 971 hPa | - | - | 0 W/m² | - |
| 1777478563 | 14.44° C | 81% | 971 hPa | - | - | 0 W/m² | - |
| 1777478252 | 15.56° C | 77% | 971 hPa | - | - | 0 W/m² | - |
| 1777477941 | 15.56° C | 78% | 971 hPa | - | - | 0 W/m² | - |
| 1777477629 | 15° C | 78% | 971 hPa | - | - | 0 W/m² | - |
| 1777477318 | 15.56° C | 77% | 971 hPa | - | - | 0 W/m² | - |
| 1777477007 | 15.56° C | 77% | 971 hPa | - | - | 0 W/m² | - |
| 1777476695 | 15.56° C | 77% | 971 hPa | - | - | 0 W/m² | - |
| 1777476384 | 16.11° C | 75% | 971 hPa | - | - | 0 W/m² | - |
| 1777476072 | 15.56° C | 76% | 971 hPa | - | - | 0 W/m² | - |
| 1777475761 | 16.11° C | 75% | 971 hPa | - | - | 0 W/m² | - |
| 1777475450 | 16.11° C | 74% | 971 hPa | - | - | 0 W/m² | - |
| 1777475139 | 16.11° C | 73% | 971 hPa | - | - | 0 W/m² | - |
| 1777474827 | 16.11° C | 73% | 971 hPa | - | - | 0 W/m² | - |
| 1777474516 | 16.67° C | 77% | 971 hPa | - | - | 0 W/m² | - |
| 1777474204 | 17.22° C | 88% | 971 hPa | - | - | 0 W/m² | - |
| 1777473893 | 17.22° C | 93% | 971 hPa | - | - | 0 W/m² | - |
| 1777473582 | 16.67° C | 84% | 971 hPa | - | - | 0 W/m² | - |
| 1777473270 | 17.78° C | 82% | 970 hPa | - | - | 0 W/m² | - |
* Rain since midnight (hover to see other rain measurements)
** Current wind speed in m/s (hover to see current wind gust speed)